Location: Entracque
(44.2333°N, 7.4000°E)
Time: 10:56:44
(UTC+00:00)

Daily predictions for brighter satellites

Satellite Brightness Start Highest point End
(mag) Time Altitude Azimuth Time Altitude Azimuth Time Altitude Azimuth
Centaur D AC-29 3.9 19:29:47 10° S 19:32:58 14° SE 19:38:29 10° ESE
Meteor 2-16 Rocket 4.5 19:26:59 10° S 19:33:03 82° E 19:39:10 10° N
ERS-1 Rocket 4.3 19:33:24 10° ESE 19:37:29 26° ENE 19:41:34 10° N
Cosmos 494 Rocket 4.2 19:34:53 10° S 19:39:47 50° ESE 19:44:43 10° NNE
CZ-4C R/B 3.8 19:37:23 10° NNE 19:41:04 40° E 19:44:49 10° S
SL-8 R/B 3.7 19:38:13 10° WSW 19:42:59 90° N 19:47:45 10° ENE
Cosmos 1743 3.0 19:40:15 10° N 19:43:44 45° ENE 19:47:12 10° SSE
Aureole 3 Rocket 3.5 19:39:35 10° N 19:43:52 66° E 19:49:50 10° SSE
CSL-04 Rocket 4.0 19:39:04 10° S 19:44:20 68° WSW 19:49:36 10° NNW
USA 186 3.8 19:44:15 10° SSW 19:47:03 28° W 19:49:56 10° NW
Okean-O 2.7 19:43:04 10° SSE 19:47:25 66° ENE 19:51:49 10° N
SL-16 R/B 3.0 19:43:14 10° SW 19:48:48 58° WNW 19:54:25 10° NNE
Cosmos 1634 Rocket 4.2 19:44:04 10° N 19:50:14 55° ENE 19:56:18 10° SSE
Cosmos 1603 4.4 19:46:57 10° SSE 19:51:53 32° ESE 19:56:52 10° NE
SPOT 5 3.1 19:48:07 10° SE 19:52:29 48° ENE 19:56:43 10° N
Cosmos 1048 Rocket 4.1 19:51:31 10° S 19:56:28 51° ESE 20:01:25 10° NNE
Cosmos 2369 Rocket 2.2 19:51:20 10° NNW 19:56:57 88° ENE 20:02:34 10° SSE
Cosmos 1656 Rocket 3.9 19:51:49 10° NNW 19:57:17 72° WSW 20:02:47 10° SSE
Cosmos 2263 4.3 19:52:18 10° NNW 19:57:59 68° ENE 20:03:25 11° SE
Cosmos 44 4.3 19:55:10 10° NW 19:59:33 37° WSW 20:03:41 10° S
Meteor 1-14 Rocket 4.4 19:56:43 10° N 20:02:35 67° ENE 20:08:31 10° SSE
Meteor 2-6 Rocket 4.1 20:01:06 10° S 20:06:39 73° E 20:12:06 10° NNE
USA 229 DEB 4.1 20:01:21 10° NW 20:08:52 86° SW 20:16:16 13° SSE
USA 229 4.1 20:01:26 10° NW 20:08:59 86° SW 20:16:23 13° SSE
Cosmos 1331 Rocket 4.5 20:05:00 10° N 20:10:04 48° ENE 20:14:10 15° SE
MOS 1 4.3 20:04:56 10° SSE 20:10:37 87° WSW 20:16:19 10° NNW
Cosmos 1536 3.6 20:11:50 10° N 20:15:25 34° ENE 20:17:51 18° SE
SeaSat 1 4.4 20:11:58 10° SSW 20:15:54 24° WSW 20:19:52 10° NW
Cosmos 1110 Rocket 4.2 20:12:45 10° NNW 20:18:02 61° ENE 20:22:09 16° SE
Cosmos 1726 2.0 20:16:39 10° N 20:19:43 48° E 20:21:30 21° SSE
USA 306 3.1 20:18:04 10° NW 20:21:48 55° NNE 20:24:42 16° ESE
USA 59 Rocket 1.8 20:19:31 10° N 20:22:33 21° NE 20:26:18 10° E
Tsikada Rocket 4.4 20:16:40 10° SSW 20:22:48 65° W 20:29:02 10° N
Lacrosse 4 Rocket 3.8 20:21:40 10° NNE 20:23:09 12° NE 20:24:38 10° ENE
Cosmos 1943 3.2 20:20:01 10° SSW 20:25:42 89° NW 20:31:24 10° NNE
BREEZE-M DEB (TANK) 4.3 20:08:46 10° SSW 20:25:54 47° SSE 20:30:16 10° ENE
IRS-1C Rocket 4.1 20:21:18 12° SSE 20:26:11 88° W 20:31:29 10° NNW
Cosmos 1842 Rocket 3.5 20:22:43 10° S 20:27:09 87° E 20:31:35 10° N
Cosmos 1733 4.5 20:25:07 10° NNE 20:27:58 23° ENE 20:29:15 18° ESE
Spot 2 Rocket 3.7 20:25:05 17° SE 20:28:45 54° ENE 20:33:41 10° N
USA 276 3.4 20:27:35 10° W 20:29:01 15° SW 20:29:24 15° SSW
Resurs 01 Rocket 4.0 20:26:12 10° SW 20:29:30 20° W 20:32:50 10° NW
Okean 3 Rocket 3.5 20:25:14 10° N 20:29:38 89° WSW 20:33:10 15° S
IRS-1A Rocket 4.3 20:24:47 13° SSE 20:29:53 89° WSW 20:35:28 10° NNW
ARGOS Delta rocket 3.9 20:27:17 15° SSE 20:31:24 77° ENE 20:36:10 10° N
ISS -3.7 20:28:54 10° WNW 20:32:15 70° SW 20:33:56 27° SE
Landsat 5 4.4 20:34:02 10° NE 20:37:15 26° E 20:38:13 23° ESE
SPOT 3 Rocket 3.7 20:36:08 20° SE 20:39:35 60° ENE 20:44:39 10° N
Okean O Rocket 4.0 20:36:34 10° SW 20:39:45 19° W 20:42:56 10° NW
Cosmos 1340 3.6 20:38:06 10° NNE 20:41:03 27° ENE 20:42:01 23° ESE
Sich 1 3.6 20:38:36 10° N 20:42:48 44° ENE 20:44:55 25° SE
Meteor 1-27 Rocket 3.8 20:40:55 17° SSE 20:44:58 55° E 20:50:23 10° NNE
Meteor 2-9 Rocket 4.4 20:40:52 10° N 20:46:41 61° ENE 20:50:24 23° SSE
USA 281 3.6 20:43:30 19° SE 20:48:06 52° ENE 20:54:28 10° NNW
Ariane Rocket 2.9 20:48:21 22° SSE 20:51:40 84° ENE 20:56:47 10° NNW
MetOp-A 4.4 20:53:25 26° SE 20:55:38 44° ENE 21:00:18 10° N
GEOS 3 Rocket 3.7 20:54:18 10° NE 20:59:18 49° ESE 21:03:30 14° SSW
Terra 2.1 20:59:36 21° S 21:02:39 64° W 21:07:21 10° NNW
Cosmos 1340 Rocket 2.7 21:03:13 32° S 21:04:57 69° E 21:08:56 10° NNE
MOS 1 Rocket 3.5 21:02:03 25° SSE 21:05:05 89° WSW 21:10:28 10° NNW
Cosmos 1452 Rocket 4.2 21:03:07 10° NNW 21:08:09 49° WSW 21:11:26 21° S
Cosmos 1743 Rocket 3.5 21:04:39 10° N 21:09:05 78° E 21:10:55 35° SSE
Lacrosse 5 rocket 4.3 21:10:57 10° NW 21:13:18 14° N 21:15:37 10° NNE
NOSS 2-1 (C) 4.1 21:10:03 10° NNW 21:13:53 52° NE 21:16:11 28° ESE
ARIANE 5 R/B 4.1 21:12:44 20° E 21:14:07 23° ENE 21:17:30 10° NNE
ERS-1 Rocket 3.9 21:12:27 17° SSW 21:15:59 42° W 21:20:47 10° NNW
Cosmos 1408 Rocket 4.4 21:14:29 10° NNW 21:18:45 46° W 21:21:17 22° SSW
Meteor 2-10 4.2 21:15:54 10° NNW 21:21:23 71° W 21:24:13 28° S
Cosmos 1626 3.3 21:24:36 25° ENE 21:24:36 25° ENE 21:26:42 10° NNE
Nadezhda 4 Rocket 4.0 21:21:16 21° S 21:25:40 84° W 21:31:58 10° N
Spot 1 4.1 21:21:49 10° N 21:25:55 75° WNW 21:28:04 28° SSW
Cosmos 614 Rocket 3.9 21:25:40 29° S 21:28:23 75° ESE 21:33:37 10° NNE
Cosmos 1833 Rocket 3.6 21:35:25 28° ESE 21:35:49 28° ESE 21:40:30 10° NE
Cosmos 1151 Rocket 3.2 21:37:10 33° SSW 21:38:59 67° W 21:43:19 10° N
Cosmos 1975 2.6 21:38:44 10° N 21:42:41 75° E 21:43:09 65° SE
Cosmos 1328 Rocket 3.6 21:45:12 53° SE 21:45:45 58° E 21:50:00 10° NNE
FALCON 9 R/B 4.4 21:41:59 10° WSW 21:48:43 39° S 21:58:41 23° SE
Cosmos 1992 Rocket 3.9 21:46:25 10° NNW 21:51:40 83° ENE 21:53:10 48° SSE
USA 306 4.1 21:52:03 10° WNW 21:54:47 25° WSW 21:54:47 25° WSW
Cosmos 1656 3.6 21:50:55 10° NNW 21:56:23 76° ENE 21:58:06 45° SE
Cosmos 1766 3.7 21:55:48 10° N 21:59:18 46° ENE 21:59:18 46° ENE
Cosmos 1805 3.8 21:57:39 10° NNW 22:01:13 45° W 22:01:33 43° WSW
Lacrosse 4 Rocket 1.2 21:57:59 10° NNW 22:02:05 80° ENE 22:02:26 72° ESE
H-2A R/B 3.1 22:02:15 41° E 22:02:43 43° ENE 22:06:45 10° N
Cosmos 1470 Rocket 3.8 21:59:21 10° N 22:03:44 55° ENE 22:04:11 52° ESE
Cosmos 2026 Rocket 4.0 22:02:10 33° SSW 22:05:10 79° W 22:11:27 10° N
Cosmos 1470 4.0 22:06:22 10° NNE 22:09:19 27° ENE 22:09:19 27° ENE
Cosmos 1633 Rocket 3.0 22:06:30 10° NNW 22:10:54 77° W 22:11:28 65° SSW
NOSS 3-3 (A) 3.7 22:08:04 28° SW 22:11:06 87° NW 22:17:24 10° NE
USA 59 Rocket 0.6 22:08:13 10° NW 22:12:20 56° SW 22:13:06 50° SSW
Cosmos 1666 Rocket 3.7 22:08:43 10° NNW 22:12:58 59° W 22:13:32 53° SW
Orbus 7S? 3.4 22:13:47 64° E 22:13:47 64° E 22:16:30 10° NE
NOSS 2-1 (E) 4.1 22:10:18 10° NW 22:14:26 53° SW 22:15:08 49° SSW
USA 267 4.3 22:11:06 10° ENE 22:15:41 26° ESE 22:15:41 26° ESE
Cosmos 1140 Rocket 3.8 22:19:19 45° ESE 22:19:36 46° ESE 22:24:35 10° NNE
CZ-2C R/B 3.8 22:18:17 10° N 22:22:44 66° WNW 22:23:38 52° SW
Cosmos 44 Rocket 4.0 22:19:08 10° NNW 22:23:53 46° NE 22:25:16 36° E
Cosmos 1818 4.0 22:21:17 21° SW 22:24:54 63° NW 22:30:22 10° NNE
ALOS 2 3.3 22:26:21 40° E 22:26:48 41° ENE 22:30:56 10° N
Cosmos 1933 Rocket 3.9 22:24:35 10° N 22:28:51 52° ENE 22:29:00 52° E
BREEZE-M DEB (TANK) 3.6 22:31:06 48° ENE 22:31:06 48° ENE 22:35:44 10° ENE
Meteor 2-12 Rocket 4.4 22:29:06 49° S 22:30:56 85° E 22:37:07 10° N
Cosmos 724 4.4 22:32:09 50° SE 22:32:46 53° ESE 22:38:26 10° NE
USA 281 4.2 22:30:22 26° SW 22:32:46 33° WSW 22:38:39 10° NW
Cosmos 1697 Rocket 2.9 22:28:22 10° NNW 22:33:58 63° ENE 22:35:28 46° ESE
Cosmos 1674 3.2 22:37:26 51° N 22:37:26 51° N 22:40:09 10° N
Spot 2 4.4 22:37:38 59° ESE 22:38:12 65° ENE 22:43:04 10° N
Cosmos 1553 Rocket 3.9 22:32:11 10° N 22:38:18 82° W 22:39:56 51° S
Cosmos 1607 3.9 22:37:13 48° S 22:39:03 71° ESE 22:45:32 10° NE
NOSS 3-3 (C) 4.3 22:38:08 20° WSW 22:41:56 59° NW 22:48:15 10° NNE
Cosmos 1980 Rocket 3.3 22:36:55 10° NNW 22:42:14 37° NE 22:44:37 26° ESE
Cosmos 2285 Rocket 4.0 22:44:28 51° SSE 22:45:53 66° ESE 22:52:10 10° NNE
Cosmos 407 Rocket 3.6 22:49:43 56° ESE 22:50:02 58° ESE 22:55:12 10° NNE
ARIANE 5 R/B 3.5 22:50:12 35° W 22:50:19 35° W 22:54:18 10° NNW
Lacrosse 5 rocket 3.8 22:49:47 10° NNW 22:52:59 21° NNE 22:56:06 10° ENE
Cosmos 1908 3.9 22:51:34 10° N 22:54:20 48° NNE 22:54:20 48° NNE
Cosmos 1626 4.4 22:57:25 15° WNW 22:57:30 15° WNW 22:59:24 10° NW
Cosmos 2251 Rocket 3.4 23:01:47 64° SE 23:02:10 67° ESE 23:07:24 10° NNE
COSMOS 2406 4.1 23:02:31 34° ESE 23:02:44 34° ESE 23:07:52 10° NE
CZ-3 Stage 3 4.2 22:45:18 10° WSW 23:03:03 34° SSW 23:03:03 34° SSW
Meteor 1-13 Rocket 4.2 23:04:59 59° S 23:06:13 84° E 23:12:08 10° NNE
SL-8 R/B 3.9 23:03:48 10° WNW 23:08:34 67° NNE 23:10:28 35° E
Cosmos 1707 3.5 23:09:20 46° NW 23:09:20 46° NW 23:12:18 10° N
Cosmos 2266 Rocket 3.9 23:12:28 54° SSW 23:14:00 82° W 23:20:19 10° N
Spot 4 4.3 23:13:59 46° WSW 23:14:08 46° W 23:18:43 10° NNW
Cosmos 1441 Rocket 3.9 23:11:49 10° N 23:14:30 48° N 23:14:30 48° N
Cosmos 1842 4.5 23:15:46 32° WNW 23:15:46 32° WNW 23:18:49 10° N
SL-16 R/B 4.4 23:12:09 10° N 23:16:15 20° NE 23:20:21 10° E
Cosmos 1655 Rocket 4.0 23:15:56 54° SSE 23:17:27 76° E 23:23:50 10° N
Cosmos 1833 Rocket 3.5 23:17:04 29° WSW 23:19:29 45° WNW 23:24:53 10° NNE
Cosmos 883 Rocket 4.4 23:16:45 10° N 23:23:02 88° E 23:24:33 55° S
Cosmos 2082 Rocket 2.2 23:23:06 57° SE 23:23:43 61° ESE 23:29:22 10° NNE
ATLAS CENTAUR R/B 4.4 23:13:08 10° NW 23:26:57 71° SW 23:31:47 37° SSE
CZ-2C R/B 3.7 23:27:24 44° SE 23:28:41 57° ENE 23:43:56 10° N
Cosmos 2228 Rocket 3.2 23:31:44 65° E 23:31:44 65° E 23:36:05 10° NNE
Cosmos 1300 3.6 23:28:08 10° N 23:30:52 41° NE 23:30:52 41° NE
Meteor 1-22 Rocket 4.0 23:27:51 10° NNW 23:33:12 80° W 23:33:54 67° SSW
Meteor 1-15 Rocket 4.1 23:31:49 10° NNW 23:37:27 73° W 23:38:16 62° SSW
Cosmos 1356 Rocket 4.2 23:38:18 43° ENE 23:38:18 43° ENE 23:41:47 10° NNE
H-2A R/B 2.0 23:33:59 10° NNE 23:38:22 84° NW 23:38:22 84° NW
Cosmos 1733 Rocket 3.2 23:35:41 10° N 23:39:58 63° ENE 23:39:58 63° ENE
Meteor 1-21 4.3 23:41:47 54° SE 23:42:46 63° E 23:48:27 10° NNE
Cosmos 1869 Rocket 4.3 23:38:39 10° NNW 23:42:30 42° W 23:42:30 42° W
Cosmos 1400 Rocket 3.2 23:54:09 58° NW 23:54:09 58° NW 23:57:42 10° N
